Hampton Weather Center

Moon Phase Calendar



Online Cameras

 


      

Current Conditions in Hampton Beach
8/14/2022 9:15:36 AM

70°F
Feels Like 70
Clear
Humidity
69%
Pressure
30.03"
Wind
3.4 mph (W)
Dew Point
59°F
UV Index
2/10 (Low)
Visibility
6 mi

Hourly Forecast

Date & Time Sun, Aug 14
9:00 AM
Sun, Aug 14
10:00 AM
Sun, Aug 14
11:00 AM
Sun, Aug 14
12:00 PM
Sun, Aug 14
1:00 PM
Sun, Aug 14
2:00 PM
Sun, Aug 14
3:00 PM
Sun, Aug 14
4:00 PM
Sun, Aug 14
5:00 PM
Sun, Aug 14
6:00 PM
Sun, Aug 14
7:00 PM
Sun, Aug 14
8:00 PM
Sun, Aug 14
9:00 PM
Sun, Aug 14
10:00 PM
Sun, Aug 14
11:00 PM
Mon, Aug 15
12:00 AM
Mon, Aug 15
1:00 AM
Mon, Aug 15
2:00 AM
Mon, Aug 15
3:00 AM
Mon, Aug 15
4:00 AM
Mon, Aug 15
5:00 AM
Mon, Aug 15
6:00 AM
Mon, Aug 15
7:00 AM
Mon, Aug 15
8:00 AM
Mon, Aug 15
9:00 AM
Mon, Aug 15
10:00 AM
Mon, Aug 15
11:00 AM
Mon, Aug 15
12:00 PM
Mon, Aug 15
1:00 PM
Mon, Aug 15
2:00 PM
Mon, Aug 15
3:00 PM
Mon, Aug 15
4:00 PM
Mon, Aug 15
5:00 PM
Mon, Aug 15
6:00 PM
Mon, Aug 15
7:00 PM
Mon, Aug 15
8:00 PM
Mon, Aug 15
9:00 PM
Mon, Aug 15
10:00 PM
Mon, Aug 15
11:00 PM
Tue, Aug 16
12:00 AM
Tue, Aug 16
1:00 AM
Tue, Aug 16
2:00 AM
Tue, Aug 16
3:00 AM
Tue, Aug 16
4:00 AM
Tue, Aug 16
5:00 AM
Tue, Aug 16
6:00 AM
Tue, Aug 16
7:00 AM
Tue, Aug 16
8:00 AM
Condition
Clear

Clear

Clear

Clear

Clear

Clear

Clear

Clear

Clouds

Clouds

Clouds

Clouds

Clouds

Clouds

Clouds

Clouds

Clouds

Clouds

Clouds

Clouds

Clouds

Clouds

Clouds

Clouds

Clouds

Clouds

Clouds

Clouds

Clouds

Clouds

Clouds

Clouds

Clear

Clouds

Clouds

Clouds

Clouds

Clouds

Clouds

Clouds

Clouds

Clouds

Clouds

Clouds

Clouds

Clouds

Clouds

Clouds
Temperature 70°F71°F72°F73°F74°F75°F75°F74°F73°F71°F69°F67°F66°F66°F65°F65°F64°F62°F61°F60°F60°F60°F62°F66°F68°F70°F72°F72°F73°F73°F73°F72°F71°F70°F68°F65°F63°F63°F62°F61°F62°F61°F61°F61°F61°F60°F62°F65°F
Feels Like 70°F70°F72°F73°F74°F74°F74°F73°F72°F70°F68°F66°F66°F66°F65°F64°F64°F62°F61°F60°F59°F59°F62°F65°F68°F70°F71°F72°F73°F72°F72°F72°F71°F70°F67°F65°F63°F63°F62°F61°F61°F61°F61°F60°F60°F60°F62°F65°F
Cloudiness 0%0%0%0%0%0%1%6%29%47%54%62%100%100%100%100%99%91%54%40%33%29%35%45%100%100%100%97%80%71%14%11%10%25%40%50%31%34%52%64%71%76%99%98%94%93%90%87%
Visibility 6 mi6 mi6 mi6 mi6 mi6 mi6 mi6 mi6 mi6 mi6 mi6 mi6 mi6 mi6 mi6 mi6 mi6 mi6 mi6 mi6 mi6 mi6 mi6 mi6 mi6 mi6 mi6 mi6 mi6 mi6 mi6 mi6 mi6 mi6 mi6 mi6 mi6 mi6 mi6 mi6 mi6 mi6 mi6 mi6 mi6 mi6 mi6 mi
Precipitation 0%0%0%0%0%0%0%0%0%0%0%0%0%0%0%0%0%0%0%0%0%0%0%0%0%0%0%0%0%0%0%0%0%0%0%0%0%0%0%0%0%0%0%0%0%0%0%0%
Humidity 69%65%60%54%49%47%49%50%52%58%63%66%70%72%74%74%74%78%79%80%81%82%77%69%64%60%57%57%57%57%57%57%60%64%72%80%83%84%86%85%84%82%82%81%81%81%78%70%
Dew Point 59°F58°F57°F56°F54°F52°F53°F53°F53°F55°F55°F55°F56°F56°F56°F56°F56°F55°F55°F54°F54°F54°F55°F55°F55°F55°F55°F55°F55°F56°F56°F55°F56°F57°F58°F58°F58°F58°F57°F57°F56°F56°F55°F55°F55°F54°F55°F55°F
Pressure 30.03"30.03"30.03"30"30"30"30"30"30"29.97"30"30"30.03"30.03"30.03"30.03"30.03"30.03"30"30.03"30.03"30.03"30.03"30.06"30.06"30.06"30.06"30.06"30.06"30.03"30.03"30.03"30.03"30.03"30.03"30.06"30.06"30.06"30.06"30.09"30.06"30.06"30.06"30.06"30.06"30.09"30.09"30.09"
Wind Speed 5.4 mph3.7 mph0.9 mph3.4 mph6.9 mph8.9 mph10 mph10.3 mph10.5 mph10.6 mph10.3 mph8.5 mph5.3 mph3.4 mph2.4 mph2.1 mph2.4 mph2.8 mph3.2 mph2.8 mph2.6 mph1.3 mph0.6 mph2.3 mph4.2 mph4.6 mph6 mph8.2 mph9.4 mph9.8 mph9.7 mph10 mph9.9 mph8 mph6.2 mph4.8 mph4 mph1.9 mph2.6 mph3.9 mph5.2 mph5.1 mph5.2 mph4.9 mph5.6 mph5.9 mph5.9 mph7.6 mph
Wind
Direction
295°
WNW
301°
WNW
276°
W
126°
SE
123°
ESE
127°
SE
131°
SE
137°
SE
147°
SSE
161°
SSE
169°
S
169°
S
167°
SSE
167°
SSE
191°
S
207°
SSW
211°
SSW
235°
SW
249°
WSW
268°
W
290°
WNW
317°
NW
81°
E
136°
SE
151°
SSE
147°
SSE
127°
SE
120°
ESE
116°
ESE
117°
ESE
115°
ESE
117°
ESE
121°
ESE
122°
ESE
120°
ESE
131°
SE
147°
SSE
190°
S
294°
WNW
321°
NW
336°
NNW
334°
NNW
336°
NNW
355°
N

N

N

N
13°
NNE

Daily Forecast

Date High Low Precip. Humidity
Today
Aug 14

Clear
75 °F
63 °F
6%
54%
Monday
Aug 15

Clouds
73 °F
60 °F
0%
57%
Tuesday
Aug 16

Clouds
71 °F
61 °F
0%
63%
Wednesday
Aug 17

Rain
67 °F
61 °F
68%
69%
Thursday
Aug 18

Rain
70 °F
60 °F
100%
80%
Friday
Aug 19

Clear
77 °F
58 °F
0%
45%
Saturday
Aug 20

Clear
83 °F
64 °F
0%
44%
Sunday
Aug 21

Clouds
78 °F
66 °F
12%
53%
Monday
Aug 22

Rain
78 °F
68 °F
39%
51%
Tuesday
Aug 23

Rain
79 °F
66 °F
100%
72%
Wednesday
Aug 24

Rain
80 °F
69 °F
68%
61%
Thursday
Aug 25

Clouds
67 °F
63 °F
5%
76%
Friday
Aug 26

Rain
70 °F
64 °F
99%
81%
Saturday
Aug 27

Rain
74 °F
65 °F
100%
89%
Sunday
Aug 28

Clear
80 °F
65 °F
0%
59%
Monday
Aug 29

Rain
83 °F
68 °F
72%
64%

Temperature 8-14 Day Outlook



Precipitation 8-14 Day Outlook




Quick Links
Hampton News
Hampton Photos
Hampton Videos




About Us
Contact Us
Site Map
Search Site
Advertise With Us
   
Hampton.USCoast.info
THE HAMPTON WEBSITE

Copyright 2022, Coastal Town
Privacy    |    Legal